Indianapolis, IN

9:03 AM EDT on September 19, 2017 (GMT -0400)
Indianapolis International

Weather History for KIND - March, 2014

Change the Weather History Date:

Monday, March 10, 2014

  Actual Average Record
Temperature  
Mean Temperature 47 °F 40 °F  
Max Temperature 60 °F 49 °F 74 °F (2009)
Min Temperature 34 °F 31 °F 8 °F (1934)
Degree Days  
Heating Degree Days 18 25  
Month to date heating degree days 352 267  
Since 1 July heating degree days 5149 4410  
Cooling Degree Days 0 0  
Month to date cooling degree days 0 0  
Year to date cooling degree days 0 0  
Moisture  
Dew Point 35 °F    
Average Humidity 68    
Maximum Humidity 89    
Minimum Humidity 47    
Precipitation  
Precipitation 0.00 in 0.11 in 2.54 in (1990)
Month to date precipitation 0.29 1.02  
Year to date precipitation 5.08 6.00  
Snow  
Snow 0.00 in 0.20 in 4.60 in (1959)
Month to date snowfall 2.4 1.3  
Since 1 July snowfall 54.7 24.4  
Snow Depth 0.00 in    
Sea Level Pressure  
Sea Level Pressure 29.84 in    
Wind  
Wind Speed 14 mph (SW)    
Max Wind Speed 25 mph    
Max Gust Speed 29 mph    
Visibility 9 miles    
Events      
T = Trace of Precipitation, MM = Missing Value Source: NWS Daily Summary

Daily Weather History Graph

Daily Weather History Graph

Search for Another Location

Airport or City:

Trip Planner

Search our weather history database for the weather conditions in past years. The results will help you decide how hot, cold, wet, or windy it might be!

Date:

Astronomy

Mar. 10, 2014 Rise Set
Actual Time 8:04 AM EDT 7:46 PM EDT
Civil Twilight 7:37 AM EDT 8:13 PM EDT
Nautical Twilight 7:06 AM EDT 8:45 PM EDT
Astronomical Twilight 6:34 AM EDT 9:16 PM EDT
Moon 2:30 PM EDT (3/10) 4:15 AM EDT (3/10)
Length of Visible Light 12h 36m
Length of Day
11h 42m
Waxing Gibbous, 70% of the Moon is Illuminated
Mar 10
Waxing Gibbous
Mar 16
Full
Mar 23
Last Quarter
Mar 30
New
Apr 7
First Quarter

Hourly Weather History & Observations

Time (EDT) Temp. Windchill Dew Point Humidity Pressure Visibility Wind Dir Wind Speed Gust Speed Precip Events Conditions
12:54 AM 34.0 °F 26.6 °F 28.9 °F 82% 30.00 in 9.0 mi SW 9.2 mph - N/A   Clear
1:54 AM 36.0 °F 27.1 °F 28.9 °F 76% 29.96 in 10.0 mi SW 13.8 mph - N/A   Clear
2:54 AM 36.0 °F 26.7 °F 28.9 °F 76% 29.95 in 10.0 mi SW 15.0 mph - N/A   Clear
3:54 AM 36.0 °F 25.6 °F 28.9 °F 76% 29.93 in 9.0 mi SW 18.4 mph - N/A   Clear
4:54 AM 36.0 °F 26.3 °F 30.0 °F 79% 29.91 in 9.0 mi SW 16.1 mph - N/A   Scattered Clouds
5:54 AM 37.0 °F 28.1 °F 30.0 °F 76% 29.89 in 9.0 mi SW 15.0 mph - N/A   Mostly Cloudy
6:54 AM 37.0 °F 28.1 °F 30.0 °F 76% 29.88 in 9.0 mi SW 15.0 mph - N/A   Mostly Cloudy
7:54 AM 36.0 °F 26.7 °F 32.0 °F 86% 29.88 in 7.0 mi SW 15.0 mph - N/A   Mostly Cloudy
8:54 AM 37.0 °F 28.5 °F 34.0 °F 89% 29.89 in 6.0 mi SW 13.8 mph - N/A   Overcast
9:54 AM 39.0 °F 30.6 °F 35.1 °F 86% 29.89 in 5.0 mi SW 15.0 mph - N/A   Overcast
10:54 AM 41.0 °F 32.5 °F 36.0 °F 82% 29.87 in 5.0 mi SW 17.3 mph - N/A   Haze
11:54 AM 45.0 °F 37.4 °F 37.0 °F 74% 29.88 in 6.0 mi SW 18.4 mph - N/A   Haze
12:54 PM 50.0 °F - 37.0 °F 61% 29.85 in 8.0 mi WSW 19.6 mph - N/A   Overcast
1:54 PM 53.1 °F - 37.0 °F 55% 29.84 in 10.0 mi SW 20.7 mph - N/A   Mostly Cloudy
2:54 PM 57.0 °F - 37.0 °F 47% 29.80 in 10.0 mi SW 20.7 mph - N/A   Mostly Cloudy
3:54 PM 57.9 °F - 37.9 °F 47% 29.76 in 10.0 mi SSW 16.1 mph - N/A   Mostly Cloudy
4:54 PM 57.9 °F - 39.0 °F 49% 29.75 in 10.0 mi SSW 12.7 mph - N/A   Mostly Cloudy
5:54 PM 59.0 °F - 39.0 °F 48% 29.72 in 10.0 mi SW 12.7 mph - N/A   Mostly Cloudy
6:54 PM 55.9 °F - 37.9 °F 51% 29.74 in 10.0 mi SW 13.8 mph - N/A   Overcast
7:54 PM 51.1 °F - 39.0 °F 63% 29.75 in 10.0 mi WSW 9.2 mph - N/A   Overcast
8:54 PM 48.9 °F - 37.9 °F 66% 29.77 in 10.0 mi WSW 6.9 mph - N/A   Overcast
9:54 PM 48.0 °F - 39.0 °F 71% 29.77 in 10.0 mi SW 6.9 mph - N/A   Overcast
10:54 PM 48.9 °F - 39.0 °F 69% 29.76 in 10.0 mi SW 5.8 mph - N/A   Overcast
11:54 PM 48.0 °F - 39.0 °F 71% 29.75 in 10.0 mi SW 6.9 mph - N/A   Overcast